| time (UTC) | temp F | wind direction | speed knots | gust knots | rain 1hr in | rain 24hr in | rain mn in | humidity % | barometer mb |
| 20260904101503 | 76 | 199 | 0.0 | 0.9 | 0.00 | 0.00 | 0.00 | 91 | 1015.7 |
| 20260904100503 | 76 | 216 | 0.0 | 0.0 | 0.00 | 0.00 | 0.00 | 90 | 1015.7 |
| 20260904100004 | 76 | 273 | 0.0 | 0.0 | 0.00 | 0.00 | 0.00 | 90 | 1015.7 |
| 20260904095503 | 77 | 273 | 0.0 | 0.9 | 0.00 | 0.00 | 0.00 | 90 | 1015.7 |
| 20260904095003 | 77 | 336 | 0.0 | 0.0 | 0.00 | 0.00 | 0.00 | 90 | 1015.6 |
| 20260904094503 | 77 | 341 | 0.0 | 0.0 | 0.00 | 0.00 | 0.00 | 89 | 1015.6 |
| 20260904094004 | 77 | 156 | 0.0 | 0.0 | 0.00 | 0.00 | 0.00 | 89 | 1015.6 |
| 20260904093504 | 77 | 156 | 0.0 | 0.9 | 0.00 | 0.00 | 0.00 | 88 | 1015.6 |
| 20260904093004 | 77 | 112 | 0.0 | 0.9 | 0.00 | 0.00 | 0.00 | 88 | 1015.6 |
| 20260904092503 | 77 | 274 | 0.0 | 0.9 | 0.00 | 0.00 | 0.00 | 88 | 1015.6 |
| 20260904092003 | 78 | 173 | 0.0 | 0.0 | 0.00 | 0.00 | 0.00 | 88 | 1015.6 |
| 20260904091503 | 78 | 173 | 0.0 | 0.0 | 0.00 | 0.00 | 0.00 | 87 | 1015.6 |
| 20260904091003 | 78 | 169 | 0.9 | 1.7 | 0.00 | 0.00 | 0.00 | 87 | 1015.5 |
| 20260904090503 | 78 | 61 | 0.0 | 0.9 | 0.00 | 0.00 | 0.00 | 86 | 1015.5 |
| 20260904090003 | 78 | 80 | 0.0 | 0.0 | 0.00 | 0.00 | 0.00 | 86 | 1015.4 |
| 20260904085003 | 78 | 110 | 0.0 | 0.9 | 0.00 | 0.00 | 0.00 | 86 | 1015.3 |
| 20260904084503 | 78 | 115 | 0.0 | 0.9 | 0.00 | 0.00 | 0.00 | 86 | 1015.2 |
| 20260904083503 | 78 | 95 | 0.0 | 0.0 | 0.00 | 0.00 | 0.00 | 86 | 1015.1 |
| 20260904083005 | 78 | 190 | 0.9 | 1.7 | 0.00 | 0.00 | 0.00 | 85 | 1015.1 |
| 20260904082503 | 78 | 184 | 0.9 | 1.7 | 0.00 | 0.00 | 0.00 | 85 | 1015.1 |
| 20260904082003 | 78 | 168 | 0.9 | 1.7 | 0.00 | 0.00 | 0.00 | 85 | 1015.1 |
| 20260904081503 | 78 | 280 | 0.9 | 1.7 | 0.00 | 0.00 | 0.00 | 84 | 1015.1 |
| 20260904081003 | 78 | 25 | 0.0 | 0.9 | 0.00 | 0.00 | 0.00 | 85 | 1015.2 |
| 20260904080005 | 79 | 118 | 0.0 | 1.7 | 0.00 | 0.00 | 0.00 | 84 | 1015.2 |
| 20260904075503 | 79 | 353 | 0.9 | 0.9 | 0.00 | 0.00 | 0.00 | 84 | 1015.1 |
| 20260904075004 | 79 | 341 | 0.0 | 0.9 | 0.00 | 0.00 | 0.00 | 84 | 1015.1 |
| 20260904074504 | 79 | 20 | 0.0 | 0.9 | 0.00 | 0.00 | 0.00 | 84 | 1015.0 |
| 20260904073004 | 79 | 155 | 0.0 | 0.9 | 0.00 | 0.00 | 0.00 | 84 | 1015.0 |
| 20260904072504 | 79 | 343 | 0.9 | 1.7 | 0.00 | 0.00 | 0.00 | 84 | 1015.0 |
| 20260904072003 | 79 | 170 | 0.9 | 1.7 | 0.00 | 0.00 | 0.00 | 83 | 1015.0 |
| 20260904071503 | 79 | 177 | 0.9 | 1.7 | 0.00 | 0.00 | 0.00 | 83 | 1015.0 |
| 20260904071004 | 79 | 245 | 0.9 | 0.9 | 0.00 | 0.00 | 0.00 | 84 | 1015.1 |
| 20260904070504 | 79 | 293 | 0.0 | 0.9 | 0.00 | 0.00 | 0.00 | 84 | 1015.1 |
| 20260904070005 | 79 | 294 | 0.0 | 0.9 | 0.00 | 0.00 | 0.00 | 83 | 1015.2 |
| 20260904065503 | 79 | 184 | 0.0 | 0.9 | 0.00 | 0.00 | 0.00 | 83 | 1015.3 |
| 20260904065004 | 79 | 145 | 0.9 | 1.7 | 0.00 | 0.00 | 0.00 | 83 | 1015.3 |
| 20260904064003 | 79 | 296 | 0.0 | 0.9 | 0.00 | 0.00 | 0.00 | 83 | 1015.4 |
| 20260904063504 | 79 | 166 | 0.9 | 1.7 | 0.00 | 0.00 | 0.00 | 83 | 1015.5 |
| 20260904063004 | 79 | 302 | 0.0 | 0.9 | 0.00 | 0.00 | 0.00 | 83 | 1015.6 |
| 20260904062503 | 79 | 296 | 0.0 | 0.9 | 0.00 | 0.00 | 0.00 | 82 | 1015.7 |
| 20260904062004 | 79 | 152 | 0.0 | 0.0 | 0.00 | 0.00 | 0.00 | 82 | 1015.8 |
| 20260904061504 | 79 | 310 | 0.0 | 0.9 | 0.00 | 0.00 | 0.00 | 82 | 1015.8 |
| 20260904061005 | 79 | 153 | 0.0 | 0.9 | 0.00 | 0.00 | 0.00 | 82 | 1015.9 |
| 20260904060505 | 80 | 249 | 0.0 | 0.0 | 0.00 | 0.00 | 0.00 | 82 | 1016.0 |
| 20260904060004 | 80 | 249 | 0.0 | 0.9 | 0.00 | 0.00 | 0.00 | 81 | 1016.1 |
| 20260904055505 | 80 | 239 | 0.0 | 0.0 | 0.00 | 0.00 | 0.00 | 81 | 1016.1 |
| 20260904055004 | 80 | 239 | 0.0 | 0.0 | 0.00 | 0.00 | 0.00 | 81 | 1016.2 |
| 20260904054503 | 80 | 239 | 0.0 | 0.9 | 0.00 | 0.00 | 0.00 | 81 | 1016.2 |
| 20260904054004 | 80 | 198 | 0.0 | 0.9 | 0.00 | 0.00 | 0.00 | 80 | 1016.3 |
| 20260904053503 | 80 | 149 | 0.0 | 0.9 | 0.00 | 0.00 | 0.00 | 81 | 1016.3 |
| 20260904053004 | 80 | 160 | 0.0 | 0.9 | 0.00 | 0.00 | 0.00 | 80 | 1016.4 |
| 20260904052504 | 81 | 198 | 0.0 | 0.0 | 0.00 | 0.00 | 0.00 | 80 | 1016.4 |
| 20260904052003 | 81 | 198 | 0.0 | 0.0 | 0.00 | 0.00 | 0.00 | 80 | 1016.4 |
| 20260904051503 | 81 | 198 | 0.0 | 0.9 | 0.00 | 0.00 | 0.00 | 79 | 1016.5 |
| 20260904051004 | 81 | 198 | 0.9 | 1.7 | 0.00 | 0.00 | 0.00 | 79 | 1016.5 |
| 20260904050504 | 81 | 285 | 0.0 | 0.9 | 0.00 | 0.00 | 0.00 | 79 | 1016.5 |
| 20260904045504 | 82 | 187 | 0.0 | 0.9 | 0.00 | 0.00 | 0.00 | 78 | 1016.5 |
| 20260904045004 | 82 | 313 | 0.9 | 0.9 | 0.00 | 0.00 | 0.00 | 78 | 1016.4 |
| 20260904044505 | 82 | 263 | 0.0 | 0.9 | 0.00 | 0.00 | 0.00 | 78 | 1016.4 |
| 20260904044004 | 82 | 206 | 0.9 | 2.6 | 0.00 | 0.00 | 0.00 | 78 | 1016.4 |
| 20260904043505 | 82 | 320 | 0.0 | 0.0 | 0.00 | 0.00 | 0.00 | 78 | 1016.4 |
| 20260904042505 | 82 | 152 | 0.9 | 2.6 | 0.00 | 0.00 | 0.00 | 78 | 1016.3 |
| 20260904042003 | 82 | 171 | 0.9 | 1.7 | 0.00 | 0.00 | 0.00 | 78 | 1016.3 |
| 20260904041004 | 83 | 178 | 0.9 | 1.7 | 0.00 | 0.00 | 0.00 | 78 | 1016.2 |
| 20260904040504 | 83 | 166 | 1.7 | 2.6 | 0.00 | 0.00 | 0.00 | 78 | 1016.0 |
| 20260904040005 | 83 | 188 | 0.9 | 1.7 | 0.00 | 0.00 | 0.00 | 78 | 1016.0 |
| 20260904035504 | 83 | 155 | 0.9 | 1.7 | 0.00 | 0.00 | 0.00 | 79 | 1016.0 |
| 20260904035005 | 83 | 217 | 0.9 | 1.7 | 0.00 | 0.00 | 0.00 | 79 | 1016.0 |
| 20260904034503 | 83 | 235 | 0.9 | 1.7 | 0.00 | 0.00 | 0.00 | 79 | 1016.0 |
| 20260904034005 | 83 | 200 | 0.9 | 0.9 | 0.00 | 0.00 | 0.00 | 79 | 1016.0 |
| 20260904033504 | 83 | 292 | 0.0 | 0.9 | 0.00 | 0.00 | 0.00 | 79 | 1016.1 |
| 20260904033005 | 83 | 229 | 0.0 | 0.9 | 0.00 | 0.00 | 0.00 | 79 | 1016.1 |
| 20260904032503 | 83 | 186 | 0.0 | 0.9 | 0.00 | 0.00 | 0.00 | 79 | 1016.2 |
| 20260904031504 | 82 | 65 | 0.0 | 0.9 | 0.00 | 0.00 | 0.00 | 80 | 1016.1 |
| 20260904030502 | 82 | 172 | 0.9 | 0.9 | 0.00 | 0.00 | 0.00 | 80 | 1016.2 |
| 20260904030004 | 81 | 328 | 0.0 | 0.0 | 0.00 | 0.00 | 0.00 | 82 | 1016.2 |
| 20260904025503 | 81 | 328 | 0.0 | 0.9 | 0.00 | 0.00 | 0.00 | 82 | 1016.2 |
| 20260904025003 | 81 | 229 | 0.0 | 0.0 | 0.00 | 0.00 | 0.00 | 82 | 1016.2 |
| 20260904024503 | 81 | 229 | 0.0 | 0.0 | 0.00 | 0.00 | 0.00 | 82 | 1016.3 |
| 20260904024003 | 81 | 229 | 0.0 | 0.0 | 0.00 | 0.00 | 0.00 | 83 | 1016.4 |
| 20260904023503 | 81 | 229 | 0.0 | 0.9 | 0.00 | 0.00 | 0.00 | 83 | 1016.4 |
| 20260904023003 | 81 | 237 | 0.0 | 0.9 | 0.00 | 0.00 | 0.00 | 83 | 1016.4 |
| 20260904022503 | 82 | 183 | 0.0 | 0.9 | 0.00 | 0.00 | 0.00 | 83 | 1016.5 |
| 20260904022003 | 82 | 272 | 0.0 | 0.0 | 0.00 | 0.00 | 0.00 | 83 | 1016.4 |
| 20260904021503 | 82 | 272 | 0.0 | 0.0 | 0.00 | 0.00 | 0.00 | 82 | 1016.4 |
| 20260904021003 | 82 | 269 | 0.0 | 0.9 | 0.00 | 0.00 | 0.00 | 82 | 1016.4 |
| 20260904020502 | 82 | 279 | 0.0 | 0.0 | 0.00 | 0.00 | 0.00 | 82 | 1016.3 |
| 20260904020003 | 82 | 309 | 0.0 | 0.0 | 0.00 | 0.00 | 0.00 | 82 | 1016.3 |
| 20260904015503 | 82 | 297 | 0.0 | 0.9 | 0.00 | 0.00 | 0.00 | 81 | 1016.3 |
| 20260904015003 | 83 | 272 | 0.0 | 0.9 | 0.00 | 0.00 | 0.00 | 80 | 1016.3 |
| 20260904014503 | 83 | 158 | 0.0 | 0.0 | 0.00 | 0.00 | 0.00 | 80 | 1016.3 |
| 20260904013503 | 83 | 272 | 0.0 | 0.0 | 0.00 | 0.00 | 0.00 | 79 | 1016.2 |
| 20260904013003 | 83 | 303 | 0.0 | 0.9 | 0.00 | 0.00 | 0.00 | 79 | 1016.1 |
| 20260904012503 | 84 | 256 | 0.0 | 0.9 | 0.00 | 0.00 | 0.00 | 78 | 1016.0 |
| 20260904012003 | 84 | 251 | 0.0 | 0.9 | 0.00 | 0.00 | 0.00 | 78 | 1016.0 |
| 20260904011003 | 84 | 253 | 0.0 | 0.9 | 0.00 | 0.00 | 0.00 | 77 | 1015.7 |
| 20260904010505 | 84 | 230 | 0.0 | 0.9 | 0.00 | 0.00 | 0.00 | 76 | 1015.6 |
| 20260904010003 | 84 | 268 | 0.0 | 0.0 | 0.00 | 0.00 | 0.00 | 76 | 1015.6 |
| 20260904005502 | 85 | 268 | 0.0 | 0.0 | 0.00 | 0.00 | 0.00 | 75 | 1015.5 |
| 20260904005003 | 85 | 239 | 0.0 | 1.7 | 0.00 | 0.00 | 0.00 | 75 | 1015.5 |
| 20260904004004 | 85 | 312 | 0.0 | 0.9 | 0.00 | 0.00 | 0.00 | 75 | 1015.2 |
| 20260904003503 | 85 | 327 | 0.0 | 0.9 | 0.00 | 0.00 | 0.00 | 74 | 1015.2 |
| 20260904002004 | 85 | 280 | 0.0 | 0.9 | 0.00 | 0.00 | 0.00 | 73 | 1014.9 |
| 20260904001505 | 85 | 218 | 0.0 | 0.9 | 0.00 | 0.00 | 0.00 | 74 | 1014.8 |
| 20260904000503 | 85 | 336 | 0.0 | 0.9 | 0.00 | 0.00 | 0.00 | 72 | 1014.8 |
| 20260903235503 | 86 | 233 | 0.0 | 0.9 | 0.00 | 0.00 | 0.00 | 71 | 1014.7 |
| 20260903235004 | 86 | 314 | 0.0 | 0.9 | 0.00 | 0.00 | 0.00 | 70 | 1014.5 |
| 20260903234503 | 87 | 121 | 0.0 | 0.9 | 0.00 | 0.00 | 0.00 | 70 | 1014.5 |
| 20260903234004 | 87 | 266 | 0.0 | 0.9 | 0.00 | 0.00 | 0.00 | 68 | 1014.5 |
| 20260903233503 | 87 | 155 | 0.0 | 0.9 | 0.00 | 0.00 | 0.00 | 68 | 1014.4 |
| 20260903233004 | 88 | 345 | 0.0 | 0.9 | 0.00 | 0.00 | 0.00 | 66 | 1014.4 |
| 20260903232003 | 89 | 319 | 0.0 | 0.9 | 0.00 | 0.00 | 0.00 | 64 | 1014.4 |
| 20260903231503 | 89 | 225 | 0.0 | 0.9 | 0.00 | 0.00 | 0.00 | 62 | 1014.5 |
| 20260903231005 | 89 | 358 | 0.0 | 0.9 | 0.00 | 0.00 | 0.00 | 61 | 1014.5 |
| 20260903230504 | 90 | 266 | 0.9 | 2.6 | 0.00 | 0.00 | 0.00 | 60 | 1014.5 |
| 20260903230003 | 90 | 16 | 0.9 | 1.7 | 0.00 | 0.00 | 0.00 | 59 | 1014.5 |
| 20260903225503 | 90 | 240 | 0.9 | 1.7 | 0.00 | 0.00 | 0.00 | 60 | 1014.6 |
| 20260903225004 | 90 | 152 | 0.9 | 2.6 | 0.00 | 0.00 | 0.00 | 60 | 1014.5 |
| 20260903224504 | 91 | 157 | 0.9 | 4.3 | 0.00 | 0.00 | 0.00 | 57 | 1014.5 |
| 20260903224004 | 91 | 152 | 0.9 | 4.3 | 0.00 | 0.00 | 0.00 | 58 | 1014.6 |
| 20260903223503 | 92 | 223 | 0.9 | 1.7 | 0.00 | 0.00 | 0.00 | 58 | 1014.5 |
| 20260903223003 | 93 | 288 | 0.9 | 4.3 | 0.00 | 0.00 | 0.00 | 57 | 1014.5 |
| 20260903222505 | 94 | 254 | 0.9 | 2.6 | 0.00 | 0.00 | 0.00 | 56 | 1014.6 |
| 20260903222004 | 94 | 216 | 0.0 | 1.7 | 0.00 | 0.00 | 0.00 | 56 | 1014.5 |
| 20260903221503 | 94 | 248 | 0.0 | 1.7 | 0.00 | 0.00 | 0.00 | 56 | 1014.4 |
| 20260903221005 | 94 | 232 | 0.9 | 2.6 | 0.00 | 0.00 | 0.00 | 55 | 1014.3 |
| 20260903220503 | 94 | 329 | 0.9 | 1.7 | 0.00 | 0.00 | 0.00 | 55 | 1014.3 |
| 20260903220003 | 94 | 306 | 0.9 | 2.6 | 0.00 | 0.00 | 0.00 | 54 | 1014.3 |
| 20260903215503 | 95 | 265 | 0.0 | 1.7 | 0.00 | 0.00 | 0.00 | 57 | 1014.4 |
| 20260903215004 | 95 | 316 | 0.0 | 0.9 | 0.00 | 0.00 | 0.00 | 57 | 1014.5 |
| 20260903214503 | 95 | 150 | 0.0 | 0.9 | 0.00 | 0.00 | 0.00 | 55 | 1014.5 |
| 20260903214003 | 96 | 258 | 0.0 | 0.9 | 0.00 | 0.00 | 0.00 | 55 | 1014.5 |
| 20260903213505 | 96 | 48 | 0.0 | 0.9 | 0.00 | 0.00 | 0.00 | 53 | 1014.5 |
| 20260903213003 | 96 | 241 | 0.0 | 1.7 | 0.00 | 0.00 | 0.00 | 51 | 1014.5 |
| 20260903212503 | 96 | 195 | 0.0 | 1.7 | 0.00 | 0.00 | 0.00 | 52 | 1014.5 |
| 20260903212003 | 96 | 313 | 0.0 | 0.9 | 0.00 | 0.00 | 0.00 | 53 | 1014.4 |
| 20260903211003 | 96 | 288 | 0.0 | 1.7 | 0.00 | 0.00 | 0.00 | 53 | 1014.5 |
| 20260903210503 | 96 | 246 | 0.9 | 1.7 | 0.00 | 0.00 | 0.00 | 52 | 1014.5 |
| 20260903210002 | 96 | 332 | 0.0 | 0.9 | 0.00 | 0.00 | 0.00 | 52 | 1014.4 |
| 20260903205003 | 96 | 125 | 0.9 | 2.6 | 0.00 | 0.00 | 0.00 | 53 | 1014.6 |
| 20260903204502 | 96 | 254 | 0.9 | 2.6 | 0.00 | 0.00 | 0.00 | 50 | 1014.6 |
| 20260903204003 | 96 | 355 | 0.9 | 1.7 | 0.00 | 0.00 | 0.00 | 52 | 1014.6 |
| 20260903203503 | 96 | 125 | 0.0 | 0.9 | 0.00 | 0.00 | 0.00 | 52 | 1014.6 |
| 20260903203003 | 96 | 188 | 0.0 | 1.7 | 0.00 | 0.00 | 0.00 | 52 | 1014.7 |
| 20260903202503 | 97 | 188 | 0.0 | 0.9 | 0.00 | 0.00 | 0.00 | 52 | 1014.7 |
| 20260903202003 | 98 | 329 | 0.0 | 0.9 | 0.00 | 0.00 | 0.00 | 50 | 1014.8 |
| 20260903201503 | 98 | 343 | 0.0 | 1.7 | 0.00 | 0.00 | 0.00 | 48 | 1014.8 |
| 20260903201003 | 98 | 191 | 0.0 | 1.7 | 0.00 | 0.00 | 0.00 | 48 | 1014.8 |
| 20260903200503 | 98 | 232 | 0.0 | 0.9 | 0.00 | 0.00 | 0.00 | 48 | 1014.9 |
| 20260903200004 | 98 | 284 | 0.0 | 1.7 | 0.00 | 0.00 | 0.00 | 48 | 1014.9 |
| 20260903195503 | 98 | 330 | 0.0 | 0.9 | 0.00 | 0.00 | 0.00 | 48 | 1015.0 |
| 20260903195003 | 98 | 358 | 0.9 | 1.7 | 0.00 | 0.00 | 0.00 | 48 | 1015.0 |
| 20260903194503 | 99 | 181 | 0.9 | 2.6 | 0.00 | 0.00 | 0.00 | 47 | 1014.9 |
| 20260903193504 | 98 | 332 | 0.9 | 1.7 | 0.00 | 0.00 | 0.00 | 46 | 1015.1 |
| 20260903193004 | 98 | 167 | 0.9 | 2.6 | 0.00 | 0.00 | 0.00 | 47 | 1015.1 |
| 20260903192503 | 98 | 193 | 0.9 | 2.6 | 0.00 | 0.00 | 0.00 | 46 | 1015.2 |
| 20260903192003 | 98 | 13 | 1.7 | 2.6 | 0.00 | 0.00 | 0.00 | 47 | 1015.2 |
| 20260903191503 | 98 | 345 | 0.9 | 1.7 | 0.00 | 0.00 | 0.00 | 46 | 1015.3 |
| 20260903191003 | 99 | 180 | 0.9 | 1.7 | 0.00 | 0.00 | 0.00 | 46 | 1015.3 |
| 20260903190003 | 99 | 293 | 0.9 | 2.6 | 0.00 | 0.00 | 0.00 | 46 | 1015.4 |
| 20260903185503 | 99 | 349 | 0.0 | 1.7 | 0.00 | 0.00 | 0.00 | 45 | 1015.4 |
| 20260903185005 | 99 | 196 | 0.9 | 1.7 | 0.00 | 0.00 | 0.00 | 46 | 1015.5 |
| 20260903184503 | 99 | 275 | 0.9 | 1.7 | 0.00 | 0.00 | 0.00 | 45 | 1015.5 |
| 20260903184003 | 99 | 263 | 0.0 | 2.6 | 0.00 | 0.00 | 0.00 | 46 | 1015.6 |
| 20260903183504 | 99 | 167 | 0.0 | 2.6 | 0.00 | 0.00 | 0.00 | 45 | 1015.7 |
| 20260903183003 | 99 | 277 | 0.9 | 1.7 | 0.00 | 0.00 | 0.00 | 43 | 1015.7 |
| 20260903182503 | 99 | 163 | 0.9 | 2.6 | 0.00 | 0.00 | 0.00 | 44 | 1015.7 |
| 20260903182004 | 99 | 228 | 0.9 | 2.6 | 0.00 | 0.00 | 0.00 | 45 | 1015.8 |
| 20260903180503 | 99 | 130 | 0.0 | 1.7 | 0.00 | 0.00 | 0.00 | 46 | 1015.9 |
| 20260903180003 | 98 | 66 | 1.7 | 1.7 | 0.00 | 0.00 | 0.00 | 47 | 1015.9 |
| 20260903175003 | 98 | 56 | 0.9 | 2.6 | 0.00 | 0.00 | 0.00 | 48 | 1016.0 |
| 20260903174003 | 98 | 318 | 0.9 | 1.7 | 0.00 | 0.00 | 0.00 | 46 | 1016.1 |
| 20260903173503 | 98 | 255 | 0.0 | 0.9 | 0.00 | 0.00 | 0.00 | 46 | 1016.1 |
| 20260903173003 | 98 | 183 | 0.0 | 1.7 | 0.00 | 0.00 | 0.00 | 47 | 1016.1 |
| 20260903172503 | 97 | 329 | 0.9 | 1.7 | 0.00 | 0.00 | 0.00 | 48 | 1016.2 |
| 20260903172005 | 98 | 126 | 0.9 | 2.6 | 0.00 | 0.00 | 0.00 | 50 | 1016.3 |
| 20260903171003 | 97 | 310 | 0.0 | 1.7 | 0.00 | 0.00 | 0.00 | 53 | 1016.4 |
| 20260903170503 | 97 | 314 | 0.9 | 2.6 | 0.00 | 0.00 | 0.00 | 51 | 1016.4 |
| 20260903170003 | 97 | 198 | 0.0 | 1.7 | 0.00 | 0.00 | 0.00 | 50 | 1016.5 |
| 20260903165503 | 97 | 176 | 0.9 | 1.7 | 0.00 | 0.00 | 0.00 | 54 | 1016.6 |
| 20260903165004 | 97 | 118 | 0.9 | 1.7 | 0.00 | 0.00 | 0.00 | 50 | 1016.7 |
| 20260903164503 | 96 | 186 | 0.0 | 1.7 | 0.00 | 0.00 | 0.00 | 53 | 1016.8 |
| 20260903164004 | 96 | 143 | 0.0 | 1.7 | 0.00 | 0.00 | 0.00 | 51 | 1016.7 |
| 20260903163503 | 95 | 323 | 0.0 | 0.9 | 0.00 | 0.00 | 0.00 | 53 | 1016.8 |
| 20260903163004 | 94 | 19 | 0.9 | 1.7 | 0.00 | 0.00 | 0.00 | 54 | 1016.8 |
| 20260903162503 | 95 | 137 | 1.7 | 2.6 | 0.00 | 0.00 | 0.00 | 54 | 1016.8 |
| 20260903161504 | 96 | 327 | 0.9 | 1.7 | 0.00 | 0.00 | 0.00 | 53 | 1017.0 |
| 20260903161005 | 95 | 38 | 0.9 | 1.7 | 0.00 | 0.00 | 0.00 | 52 | 1017.0 |
| 20260903160503 | 95 | 43 | 0.0 | 0.9 | 0.00 | 0.00 | 0.00 | 57 | 1017.0 |
| 20260903160003 | 95 | 3 | 1.7 | 2.6 | 0.00 | 0.00 | 0.00 | 56 | 1017.0 |
| 20260903155003 | 95 | 334 | 0.9 | 0.9 | 0.00 | 0.00 | 0.00 | 57 | 1017.1 |
| 20260903154504 | 94 | 340 | 0.9 | 1.7 | 0.00 | 0.00 | 0.00 | 60 | 1017.2 |
| 20260903154004 | 93 | 341 | 0.9 | 1.7 | 0.00 | 0.00 | 0.00 | 58 | 1017.2 |
| 20260903153503 | 93 | 345 | 0.9 | 1.7 | 0.00 | 0.00 | 0.00 | 60 | 1017.2 |
| 20260903153004 | 93 | 305 | 0.9 | 1.7 | 0.00 | 0.00 | 0.00 | 63 | 1017.2 |
| 20260903152503 | 92 | 358 | 0.9 | 1.7 | 0.00 | 0.00 | 0.00 | 61 | 1017.2 |
| 20260903152004 | 92 | 13 | 0.0 | 1.7 | 0.00 | 0.00 | 0.00 | 63 | 1017.2 |
| 20260903151504 | 91 | 236 | 0.0 | 1.7 | 0.00 | 0.00 | 0.00 | 62 | 1017.2 |
| 20260903151004 | 91 | 326 | 0.9 | 1.7 | 0.00 | 0.00 | 0.00 | 66 | 1017.3 |
| 20260903150503 | 91 | 157 | 0.9 | 2.6 | 0.00 | 0.00 | 0.00 | 64 | 1017.3 |
| 20260903150003 | 91 | 26 | 1.7 | 1.7 | 0.00 | 0.00 | 0.00 | 64 | 1017.3 |
| 20260903145503 | 91 | 355 | 0.9 | 2.6 | 0.00 | 0.00 | 0.00 | 66 | 1017.4 |
| 20260903145003 | 90 | 289 | 0.0 | 1.7 | 0.00 | 0.00 | 0.00 | 64 | 1017.4 |
| 20260903144503 | 89 | 48 | 0.0 | 0.9 | 0.00 | 0.00 | 0.00 | 69 | 1017.4 |
| 20260903144003 | 89 | 125 | 0.9 | 2.6 | 0.00 | 0.00 | 0.00 | 68 | 1017.4 |
| 20260903143503 | 89 | 110 | 0.9 | 1.7 | 0.00 | 0.00 | 0.00 | 69 | 1017.4 |
| 20260903143005 | 88 | 97 | 0.9 | 1.7 | 0.00 | 0.00 | 0.00 | 68 | 1017.3 |
| 20260903142503 | 88 | 357 | 0.9 | 1.7 | 0.00 | 0.00 | 0.00 | 72 | 1017.3 |
| 20260903142005 | 87 | 100 | 0.0 | 1.7 | 0.00 | 0.00 | 0.00 | 72 | 1017.2 |
| 20260903141003 | 86 | 324 | 0.9 | 1.7 | 0.00 | 0.00 | 0.00 | 74 | 1017.2 |
| 20260903140503 | 85 | 351 | 0.9 | 1.7 | 0.00 | 0.00 | 0.00 | 77 | 1017.3 |
| 20260903140004 | 85 | 146 | 0.9 | 1.7 | 0.00 | 0.00 | 0.00 | 77 | 1017.3 |
| 20260903135503 | 84 | 24 | 0.9 | 1.7 | 0.00 | 0.00 | 0.00 | 78 | 1017.3 |
| 20260903135005 | 83 | 101 | 0.9 | 1.7 | 0.00 | 0.00 | 0.00 | 80 | 1017.3 |
| 20260903134504 | 83 | 17 | 1.7 | 2.6 | 0.00 | 0.00 | 0.00 | 82 | 1017.4 |
| 20260903133503 | 82 | 101 | 0.9 | 1.7 | 0.00 | 0.00 | 0.00 | 83 | 1017.3 |
| 20260903133003 | 82 | 123 | 0.9 | 2.6 | 0.00 | 0.00 | 0.00 | 84 | 1017.3 |
| 20260903132503 | 81 | 356 | 0.9 | 2.6 | 0.00 | 0.00 | 0.00 | 86 | 1017.3 |
| 20260903132004 | 81 | 319 | 0.9 | 1.7 | 0.00 | 0.00 | 0.00 | 87 | 1017.2 |
| 20260903131504 | 80 | 14 | 0.9 | 1.7 | 0.00 | 0.00 | 0.00 | 88 | 1017.3 |
| 20260903131003 | 79 | 17 | 0.0 | 1.7 | 0.00 | 0.00 | 0.00 | 90 | 1017.4 |
| 20260903130503 | 79 | 176 | 0.0 | 0.9 | 0.00 | 0.00 | 0.00 | 91 | 1017.4 |
| 20260903130003 | 79 | 340 | 0.0 | 0.9 | 0.00 | 0.00 | 0.00 | 92 | 1017.3 |
| 20260903125503 | 78 | 205 | 0.9 | 0.9 | 0.00 | 0.00 | 0.00 | 93 | 1017.4 |
| 20260903125004 | 77 | 34 | 0.0 | 0.9 | 0.00 | 0.00 | 0.00 | 95 | 1017.5 |
| 20260903124503 | 76 | 116 | 0.0 | 0.9 | 0.00 | 0.00 | 0.00 | 97 | 1017.4 |
| 20260903123504 | 75 | 69 | 0.0 | 0.0 | 0.00 | 0.00 | 0.00 | 98 | 1017.4 |
| 20260903123004 | 75 | 204 | 0.0 | 0.0 | 0.00 | 0.00 | 0.00 | 99 | 1017.4 |
| 20260903122504 | 74 | 214 | 0.0 | 0.0 | 0.00 | 0.00 | 0.00 | 99 | 1017.3 |
| 20260903122003 | 74 | 214 | 0.0 | 0.9 | 0.00 | 0.00 | 0.00 | 99 | 1017.3 |
| 20260903121503 | 73 | 302 | 0.0 | 0.0 | 0.00 | 0.00 | 0.00 | 99 | 1017.3 |
| 20260903121003 | 73 | 302 | 0.0 | 0.0 | 0.00 | 0.00 | 0.00 | 99 | 1017.3 |
| 20260903120003 | 72 | 158 | 0.0 | 0.0 | 0.00 | 0.00 | 0.00 | 99 | 1017.4 |
| 20260903115504 | 72 | 24 | 0.0 | 0.9 | 0.00 | 0.00 | 0.00 | 99 | 1017.4 |
| 20260903115004 | 72 | 30 | 0.0 | 0.9 | 0.00 | 0.00 | 0.00 | 99 | 1017.4 |
| 20260903114504 | 72 | 87 | 0.0 | 0.0 | 0.00 | 0.00 | 0.00 | 99 | 1017.4 |
| 20260903114005 | 72 | 98 | 0.0 | 0.0 | 0.00 | 0.00 | 0.00 | 99 | 1017.3 |
| 20260903113504 | 72 | 99 | 0.0 | 0.0 | 0.00 | 0.00 | 0.00 | 99 | 1017.3 |
| 20260903113005 | 72 | 194 | 0.0 | 0.9 | 0.00 | 0.00 | 0.00 | 98 | 1017.3 |
| 20260903112003 | 72 | 352 | 0.0 | 0.0 | 0.00 | 0.00 | 0.00 | 99 | 1017.2 |
| 20260903111505 | 72 | 352 | 0.0 | 0.9 | 0.00 | 0.00 | 0.00 | 98 | 1017.2 |
| 20260903111003 | 71 | 88 | 0.0 | 0.0 | 0.00 | 0.00 | 0.00 | 98 | 1017.1 |
| 20260903110503 | 72 | 90 | 0.0 | 0.0 | 0.00 | 0.00 | 0.00 | 98 | 1017.0 |
| 20260903110005 | 72 | 90 | 0.0 | 0.0 | 0.00 | 0.00 | 0.00 | 98 | 1017.0 |
| 20260903105503 | 72 | 90 | 0.0 | 0.9 | 0.00 | 0.00 | 0.00 | 98 | 1017.0 |
| 20260903105003 | 72 | 181 | 0.0 | 0.0 | 0.00 | 0.00 | 0.00 | 98 | 1017.0 |
| 20260903104005 | 72 | 164 | 0.0 | 0.0 | 0.00 | 0.00 | 0.00 | 98 | 1016.9 |
| 20260903103503 | 72 | 164 | 0.0 | 0.0 | 0.00 | 0.00 | 0.00 | 98 | 1016.9 |
| 20260903103003 | 72 | 164 | 0.0 | 0.9 | 0.00 | 0.00 | 0.00 | 98 | 1016.8 |
| 20260903102504 | 72 | 233 | 0.0 | 0.0 | 0.00 | 0.00 | 0.00 | 98 | 1016.8 |